Regional Weather Roundup
Issued by NWS

Home | Current Version | Previous Version | Text Only | Print | Product List | Glossary Off
Versions: 1 2 3 4 5 6 7 8 9 10 11 12 13 14 15 16 17 18 19 20 21 22 23 24 25 26 27

000
ASUS45 KBOU 221207
RWRCO

WEATHER ROUNDUP FOR COLORADO
NATIONAL WEATHER SERVICE DENVER/BOULDER CO
500 AM MST SUN JAN 22 2017

NOTE: "FAIR" INDICATES FEW OR NO CLOUDS BELOW 12000 FEET WITH NO
SIGNIFICANT WEATHER AND/OR OBSTRUCTIONS TO VISIBILITY.

COZ001>005-013-030-031-221300-
...NORTHWEST COLORADO...

CITY           SKY/WX    TMP DP  RH WIND       PRES   REMARKS
CRAIG          CLOUDY    21  16  81 CALM      29.98R
HAYDEN         CLOUDY    23  16  74 NW3       29.97R
MEEKER         CLOUDY    20  18  92 CALM      29.98S
MOUNT WERNER   NOT AVBL
STEAMBOAT SPGS CLOUDY    22  20  93 CALM      29.96R
WALDEN           N/A     18  12  79 SE5       29.90R WCI  11
$$

COZ006>008-011-221300-
...WEST CENTRAL VALLEYS...

CITY           SKY/WX    TMP DP  RH WIND       PRES   REMARKS
GRAND JUNCTION FAIR      24  22  91 CALM      30.02R
MONTROSE       FAIR      24  19  81 SE8       30.04R WCI  15
EAGLE          CLOUDY    22  20  92 E9        29.99R WCI  12
RIFLE          MOCLDY    30  25  81 W6        30.00R WCI  24
DELTA          FAIR      30  25  81 N3        30.03R
NUCLA          FAIR      19  16  86 E7        30.06S WCI  10
$$

COZ017>023-064>068-221300-
...SOUTHWEST COLORADO...

CITY           SKY/WX    TMP DP  RH WIND       PRES   REMARKS
DURANGO        FAIR       8   5  87 NE3       29.99R
CORTEZ         FAIR       8   6  92 NE8       30.04R WCI  -4
PAGOSA SPRINGS CLOUDY    22  20  95 CALM      29.96R
TELLURIDE      FAIR      16  11  82 CALM      29.99R
WOLF CREEK PAS   N/A      5   5 100 W3        29.92R
$$

COZ009-010-012-014-032>034-037-058>063-221300-
...CENTRAL COLORADO...

CITY           SKY/WX    TMP DP  RH WIND       PRES   REMARKS
ASPEN          LGT SNOW  21  20  96 CALM      29.93R FOG
BUENA VISTA    FAIR      17   6  62 N7        29.88R WCI   8
COPPER MTN     NOT AVBL
BERTHOUD PASS  NOT AVBL
COTTONWOOD PAS MOCLDY    21   7  53 W12G20    29.85R WCI   9
GUNNISON       FAIR      11   8  88 NE6       29.95R WCI   1
KREMMLING      CLOUDY    28  16  59 CALM      29.94R
LEADVILLE      LGT SNOW  12   7  80 NW6       29.85S WCI   3
MONARCH PASS   CLOUDY     9   5  85 NW7       29.92S WCI  -3
SALIDA         FAIR      22  13  68 NW6       29.96R WCI  15
SUNLIGHT       CLOUDY   N/A N/A N/A MISG      29.94R
WILKERSON PASS FAIR      10   3  72 NW14G24   29.82R WCI  -5
$$

COZ069>075-221300-
...SAN LUIS VALLEY/SANGRE DE CRISTO MOUNTAINS...

CITY           SKY/WX    TMP DP  RH WIND       PRES   REMARKS
ALAMOSA        FAIR      -2  -6  83 CALM      29.92R
LA VETA PASS   FAIR      16  12  86 NE25G37   29.82R WCI  -3
SAGUACHE       FAIR      19  12  73 N10       29.91S WCI   8
$$

COZ035-036-038>040-221300-
...NORTHERN COLORADO FRONT RANGE...

CITY           SKY/WX    TMP DP  RH WIND       PRES   REMARKS
DENVER INTL AP FAIR      29  18  63 W9        29.81R WCI  20
DMNS CITY PARK   N/A     35  10  34 W10       29.83R WCI  28
AURORA         PTCLDY    28  20  70 W10       29.82R WCI  19
FRONT RANGE AP FAIR      28  21  74 SW9       29.81R WCI  20
ERIE MUNI ARPT FAIR      26  17  69 SE3       29.82R
BOULDER MUN AP FAIR      32  14  47 SW3       29.80S
CENTENNIAL     FAIR      23  16  74 E3        29.81R
BROOMFIELD     FAIR      32  14  47 W12       29.81R WCI  23
FORT COLLINS   FAIR      30  16  55 SW6       29.82R WCI  24
LONGMONT       FAIR      28  20  73 CALM      29.83R
$$

COZ041-046-047-076>085-087-088-221300-
...PIKES PEAK/PALMER DIVIDE AND SOUTHERN FOOTHILLS...

CITY           SKY/WX    TMP DP  RH WIND       PRES   REMARKS
COLO. SPRINGS  MOCLDY    32  14  47 NW7       29.82R WCI  26
A. F. ACADEMY  MOCLDY    24  14  64 NW12      29.81R WCI  13
SCHRIEVER AFB  NOT AVBL
ELLICOTT       FAIR     N/A N/A N/A NE9       29.79R
FALCON         FAIR      30  13  48 NW13G18   29.81R WCI  20
FORT CARSON    NOT AVBL
LIMON          FAIR      25  23  92 W10       29.79R WCI  15
MONUMENT HILL  FAIR      21  16  79 W7        29.82R WCI  13
TRINIDAD       FAIR      23  17  78 W9        29.82R WCI  13
$$

COZ042>045-048>051-090-091-221300-
...NORTHEAST COLORADO...

CITY           SKY/WX    TMP DP  RH WIND       PRES   REMARKS
GREELEY ARPT   FAIR      25  21  85 NW9       29.82R WCI  15
AKRON          FAIR      27  20  75 NW10      29.78R WCI  17
BURLINGTON     FAIR      31  27  85 NW13      29.77R WCI  21
WRAY           FAIR      32  28  86 NW13      29.77R WCI  22
STERLING       FAIR      30  23  74 NW9       29.78R WCI  22
HOLYOKE        FAIR      34  28  80 NW9       29.76S WCI  26
FORT MORGAN    FAIR      27  22  80 W9        29.81R WCI  18
$$

COZ086-089-092>099-221300-
...SOUTHEAST COLORADO...

CITY           SKY/WX    TMP DP  RH WIND       PRES   REMARKS
PUEBLO         FAIR      26  22  84 W9        29.82R WCI  17
LA JUNTA       FAIR      28  24  85 W15G24    29.80R WCI  16
LAMAR          FAIR      25  22  88 SW7       29.78R WCI  17
SPRINGFIELD      N/A     29  27  92 NW9       29.77R WCI  20
$$




USA.gov is the U.S. government's official web portal to all federal, state and local government web resources and services.